Time,TemperatureF,DewpointF,PressureIn,WindDirection,WindDirectionDegrees,WindSpeedMPH,WindSpeedGustMPH,Humidity,HourlyPrecipIn,Conditions,Clouds,dailyrainin,SolarRadiationWatts/m^2,SoftwareType,DateUTC
2013-01-29 00:11:00,12.0,10.0,-100.00,WNW,285,13.0,21.0,93,0.00,,,0.10,0.000000,,2013-01-29 07:11:00,
2013-01-29 00:21:00,12.0,10.0,-100.00,WNW,285,13.0,21.0,93,0.00,,,0.10,0.000000,,2013-01-29 07:21:00,
2013-01-29 00:31:00,12.0,10.0,-100.00,WNW,285,13.0,21.0,93,0.00,,,0.10,0.000000,,2013-01-29 07:31:00,
2013-01-29 00:41:00,12.0,10.0,-100.00,WNW,285,13.0,21.0,93,0.00,,,0.10,0.000000,,2013-01-29 07:41:00,
2013-01-29 01:11:00,10.0,8.0,-100.00,WNW,285,10.0,21.0,93,0.00,,,0.10,0.000000,,2013-01-29 08:11:00,
2013-01-29 01:21:00,10.0,8.0,-100.00,WNW,285,10.0,21.0,93,0.00,,,0.10,0.000000,,2013-01-29 08:21:00,
2013-01-29 01:31:00,10.0,8.0,-100.00,WNW,285,10.0,21.0,93,0.00,,,0.10,0.000000,,2013-01-29 08:31:00,
2013-01-29 01:41:00,10.0,8.0,-100.00,WNW,285,10.0,21.0,93,0.00,,,0.10,0.000000,,2013-01-29 08:41:00,
2013-01-29 02:01:00,8.0,6.0,-100.00,WNW,290,9.0,17.0,92,0.00,,,0.10,0.000000,,2013-01-29 09:01:00,
2013-01-29 02:11:00,8.0,6.0,-100.00,WNW,290,9.0,17.0,92,0.00,,,0.10,0.000000,,2013-01-29 09:11:00,
2013-01-29 02:21:00,8.0,6.0,-100.00,WNW,290,9.0,17.0,92,0.00,,,0.10,0.000000,,2013-01-29 09:21:00,
2013-01-29 02:31:00,8.0,6.0,-100.00,WNW,290,9.0,17.0,92,0.00,,,0.10,0.000000,,2013-01-29 09:31:00,
2013-01-29 02:42:00,8.0,6.0,-100.00,WNW,290,9.0,17.0,92,0.00,,,0.10,0.000000,,2013-01-29 09:42:00,
2013-01-29 03:11:00,7.0,5.0,-100.00,West,280,11.0,17.0,92,0.00,,,0.10,0.000000,,2013-01-29 10:11:00,
2013-01-29 03:21:00,7.0,5.0,-100.00,West,280,11.0,17.0,92,0.00,,,0.10,0.000000,,2013-01-29 10:21:00,
2013-01-29 03:32:00,7.0,5.0,-100.00,West,280,11.0,17.0,92,0.00,,,0.10,0.000000,,2013-01-29 10:32:00,
2013-01-29 03:41:00,7.0,5.0,-100.00,West,280,11.0,17.0,92,0.00,,,0.10,0.000000,,2013-01-29 10:41:00,
2013-01-29 04:11:00,6.0,4.0,-100.00,WNW,286,10.0,19.0,92,0.00,,,0.10,0.000000,,2013-01-29 11:11:00,
2013-01-29 04:21:00,6.0,4.0,-100.00,WNW,286,10.0,19.0,92,0.00,,,0.10,0.000000,,2013-01-29 11:21:00,
2013-01-29 04:31:00,6.0,4.0,-100.00,WNW,286,10.0,19.0,92,0.00,,,0.10,0.000000,,2013-01-29 11:31:00,
2013-01-29 04:42:00,6.0,4.0,-100.00,WNW,286,10.0,19.0,92,0.00,,,0.10,0.000000,,2013-01-29 11:42:00,
2013-01-29 05:12:00,5.0,3.0,-100.00,WNW,285,10.0,19.0,91,0.00,,,0.10,0.000000,,2013-01-29 12:12:00,
2013-01-29 05:22:00,5.0,3.0,-100.00,WNW,285,10.0,19.0,91,0.00,,,0.10,0.000000,,2013-01-29 12:22:00,
2013-01-29 05:32:00,5.0,3.0,-100.00,WNW,285,10.0,19.0,91,0.00,,,0.10,0.000000,,2013-01-29 12:32:00,
2013-01-29 05:42:00,5.0,3.0,-100.00,WNW,285,10.0,19.0,91,0.00,,,0.10,0.000000,,2013-01-29 12:42:00,
2013-01-29 06:11:00,4.0,2.0,-100.00,WNW,291,6.0,17.0,90,0.00,,,0.10,0.000000,,2013-01-29 13:11:00,
2013-01-29 06:22:00,4.0,2.0,-100.00,WNW,291,6.0,17.0,90,0.00,,,0.10,0.000000,,2013-01-29 13:22:00,
2013-01-29 06:32:00,4.0,2.0,-100.00,WNW,291,6.0,17.0,90,0.00,,,0.10,0.000000,,2013-01-29 13:32:00,
2013-01-29 06:42:00,4.0,2.0,-100.00,WNW,291,6.0,17.0,90,0.00,,,0.10,0.000000,,2013-01-29 13:42:00,
2013-01-29 07:12:00,5.0,3.0,-100.00,West,268,11.0,18.0,91,0.00,,,0.10,0.000000,,2013-01-29 14:12:00,
2013-01-29 07:21:00,5.0,3.0,-100.00,West,268,11.0,18.0,91,0.00,,,0.10,0.000000,,2013-01-29 14:21:00,
2013-01-29 07:32:00,5.0,3.0,-100.00,West,268,11.0,18.0,91,0.00,,,0.10,0.000000,,2013-01-29 14:32:00,
2013-01-29 07:43:00,5.0,3.0,-100.00,West,268,11.0,18.0,91,0.00,,,0.10,0.000000,,2013-01-29 14:43:00,
2013-01-29 08:12:00,4.0,2.0,-100.00,WSW,257,10.0,17.0,90,0.00,,,0.10,4.000000,,2013-01-29 15:12:00,
2013-01-29 08:22:00,4.0,2.0,-100.00,WSW,257,10.0,17.0,90,0.00,,,0.10,4.000000,,2013-01-29 15:22:00,
2013-01-29 08:32:00,4.0,2.0,-100.00,WSW,257,10.0,17.0,90,0.00,,,0.10,4.000000,,2013-01-29 15:32:00,
2013-01-29 08:42:00,4.0,2.0,-100.00,WSW,257,10.0,17.0,90,0.00,,,0.10,4.000000,,2013-01-29 15:42:00,
2013-01-29 09:12:00,6.0,4.0,-100.00,WNW,291,7.0,13.0,90,0.00,,,0.10,89.000000,,2013-01-29 16:12:00,
2013-01-29 09:22:00,6.0,4.0,-100.00,WNW,291,7.0,13.0,90,0.00,,,0.10,89.000000,,2013-01-29 16:22:00,
2013-01-29 09:32:00,6.0,4.0,-100.00,WNW,291,7.0,13.0,90,0.00,,,0.10,89.000000,,2013-01-29 16:32:00,
2013-01-29 09:42:00,6.0,4.0,-100.00,WNW,291,7.0,13.0,90,0.00,,,0.10,89.000000,,2013-01-29 16:42:00,
2013-01-29 10:12:00,9.0,6.0,-100.00,West,276,7.0,15.0,88,0.00,,,0.10,314.000000,,2013-01-29 17:12:00,
2013-01-29 10:21:00,9.0,6.0,-100.00,West,276,7.0,15.0,88,0.00,,,0.10,314.000000,,2013-01-29 17:21:00,
2013-01-29 10:32:00,9.0,6.0,-100.00,West,276,7.0,15.0,88,0.00,,,0.10,314.000000,,2013-01-29 17:32:00,
2013-01-29 10:42:00,9.0,6.0,-100.00,West,276,7.0,15.0,88,0.00,,,0.10,314.000000,,2013-01-29 17:42:00,
2013-01-29 11:12:00,10.0,6.0,-100.00,SW,224,7.0,14.0,83,0.00,,,0.10,443.000000,,2013-01-29 18:12:00,
2013-01-29 11:22:00,10.0,6.0,-100.00,SW,224,7.0,14.0,83,0.00,,,0.10,443.000000,,2013-01-29 18:22:00,
2013-01-29 11:33:00,10.0,6.0,-100.00,SW,224,7.0,14.0,83,0.00,,,0.10,443.000000,,2013-01-29 18:33:00,
2013-01-29 11:42:00,10.0,6.0,-100.00,SW,224,7.0,14.0,83,0.00,,,0.10,443.000000,,2013-01-29 18:42:00,
2013-01-29 12:12:00,15.0,7.0,-100.00,WNW,286,6.0,17.0,69,0.00,,,0.00,647.000000,,2013-01-29 19:12:00,
2013-01-29 12:22:00,15.0,7.0,-100.00,WNW,286,6.0,17.0,69,0.00,,,0.00,647.000000,,2013-01-29 19:22:00,
2013-01-29 12:32:00,15.0,7.0,-100.00,WNW,286,6.0,17.0,69,0.00,,,0.00,647.000000,,2013-01-29 19:32:00,
2013-01-29 12:42:00,15.0,7.0,-100.00,WNW,286,6.0,17.0,69,0.00,,,0.00,647.000000,,2013-01-29 19:42:00,
2013-01-29 13:12:00,14.0,4.0,-100.00,WNW,289,11.0,19.0,63,0.00,,,0.00,706.000000,,2013-01-29 20:12:00,
2013-01-29 13:22:00,14.0,4.0,-100.00,WNW,289,11.0,19.0,63,0.00,,,0.00,706.000000,,2013-01-29 20:22:00,
2013-01-29 13:32:00,14.0,4.0,-100.00,WNW,289,11.0,19.0,63,0.00,,,0.00,706.000000,,2013-01-29 20:32:00,
2013-01-29 13:42:00,14.0,4.0,-100.00,WNW,289,11.0,19.0,63,0.00,,,0.00,706.000000,,2013-01-29 20:42:00,
2013-01-29 14:02:00,12.0,4.0,-100.00,WNW,291,10.0,21.0,69,0.00,,,0.00,631.000000,,2013-01-29 21:02:00,
2013-01-29 14:12:00,12.0,4.0,-100.00,WNW,291,10.0,21.0,69,0.00,,,0.00,631.000000,,2013-01-29 21:12:00,
2013-01-29 14:22:00,12.0,4.0,-100.00,WNW,291,10.0,21.0,69,0.00,,,0.00,631.000000,,2013-01-29 21:22:00,
2013-01-29 14:33:00,12.0,4.0,-100.00,WNW,291,10.0,21.0,69,0.00,,,0.00,631.000000,,2013-01-29 21:33:00,
2013-01-29 14:42:00,12.0,4.0,-100.00,WNW,291,10.0,21.0,69,0.00,,,0.00,631.000000,,2013-01-29 21:42:00,
2013-01-29 15:12:00,10.0,2.0,-100.00,WNW,296,15.0,24.0,70,0.00,,,0.00,570.000000,,2013-01-29 22:12:00,
2013-01-29 15:21:00,10.0,2.0,-100.00,WNW,296,15.0,24.0,70,0.00,,,0.00,570.000000,,2013-01-29 22:21:00,
2013-01-29 15:32:00,10.0,2.0,-100.00,WNW,296,15.0,24.0,70,0.00,,,0.00,570.000000,,2013-01-29 22:32:00,
2013-01-29 15:42:00,10.0,2.0,-100.00,WNW,296,15.0,24.0,70,0.00,,,0.00,570.000000,,2013-01-29 22:42:00,
2013-01-29 16:12:00,11.0,3.0,-100.00,WNW,293,11.0,26.0,68,0.00,,,0.00,413.000000,,2013-01-29 23:12:00,
2013-01-29 16:22:00,11.0,3.0,-100.00,WNW,293,11.0,26.0,68,0.00,,,0.00,413.000000,,2013-01-29 23:22:00,
2013-01-29 16:32:00,11.0,3.0,-100.00,WNW,293,11.0,26.0,68,0.00,,,0.00,413.000000,,2013-01-29 23:32:00,
2013-01-29 16:41:00,11.0,3.0,-100.00,WNW,293,11.0,26.0,68,0.00,,,0.00,413.000000,,2013-01-29 23:41:00,
2013-01-29 17:11:00,9.0,2.0,-100.00,WNW,284,8.0,20.0,72,0.00,,,0.00,276.000000,,2013-01-30 00:11:00,
2013-01-29 17:22:00,9.0,2.0,-100.00,WNW,284,8.0,20.0,72,0.00,,,0.00,276.000000,,2013-01-30 00:22:00,
2013-01-29 17:32:00,9.0,2.0,-100.00,WNW,284,8.0,20.0,72,0.00,,,0.00,276.000000,,2013-01-30 00:32:00,
2013-01-29 17:42:00,9.0,2.0,-100.00,WNW,284,8.0,20.0,72,0.00,,,0.00,276.000000,,2013-01-30 00:42:00,
2013-01-29 18:11:00,5.0,2.0,-100.00,WNW,288,11.0,22.0,86,0.00,,,0.00,37.000000,,2013-01-30 01:11:00,
2013-01-29 18:22:00,5.0,2.0,-100.00,WNW,288,11.0,22.0,86,0.00,,,0.00,37.000000,,2013-01-30 01:22:00,
2013-01-29 18:32:00,5.0,2.0,-100.00,WNW,288,11.0,22.0,86,0.00,,,0.00,37.000000,,2013-01-30 01:32:00,
2013-01-29 18:42:00,5.0,2.0,-100.00,WNW,288,11.0,22.0,86,0.00,,,0.00,37.000000,,2013-01-30 01:42:00,
2013-01-29 19:12:00,5.0,3.0,-100.00,WNW,294,9.0,24.0,90,0.00,,,0.00,0.000000,,2013-01-30 02:12:00,
2013-01-29 19:21:00,5.0,3.0,-100.00,WNW,294,9.0,24.0,90,0.00,,,0.00,0.000000,,2013-01-30 02:21:00,
2013-01-29 19:33:00,5.0,3.0,-100.00,WNW,294,9.0,24.0,90,0.00,,,0.00,0.000000,,2013-01-30 02:33:00,
2013-01-29 19:42:00,5.0,3.0,-100.00,WNW,294,9.0,24.0,90,0.00,,,0.00,0.000000,,2013-01-30 02:42:00,
2013-01-29 20:11:00,6.0,4.0,-100.00,WNW,297,9.0,20.0,91,0.00,,,0.00,0.000000,,2013-01-30 03:11:00,
2013-01-29 20:22:00,6.0,4.0,-100.00,WNW,297,9.0,20.0,91,0.00,,,0.00,0.000000,,2013-01-30 03:22:00,
2013-01-29 20:31:00,6.0,4.0,-100.00,WNW,297,9.0,20.0,91,0.00,,,0.00,0.000000,,2013-01-30 03:31:00,
2013-01-29 20:42:00,6.0,4.0,-100.00,WNW,297,9.0,20.0,91,0.00,,,0.00,0.000000,,2013-01-30 03:42:00,
2013-01-29 21:11:00,5.0,3.0,-100.00,WNW,303,7.0,15.0,91,0.00,,,0.00,0.000000,,2013-01-30 04:11:00,
2013-01-29 21:22:00,5.0,3.0,-100.00,WNW,303,7.0,15.0,91,0.00,,,0.00,0.000000,,2013-01-30 04:22:00,
2013-01-29 21:32:00,5.0,3.0,-100.00,WNW,303,7.0,15.0,91,0.00,,,0.00,0.000000,,2013-01-30 04:32:00,
2013-01-29 21:41:00,5.0,3.0,-100.00,WNW,303,7.0,15.0,91,0.00,,,0.00,0.000000,,2013-01-30 04:41:00,
2013-01-29 22:12:00,5.0,3.0,-100.00,NW,315,4.0,14.0,91,0.00,,,0.00,0.000000,,2013-01-30 05:12:00,
2013-01-29 22:22:00,5.0,3.0,-100.00,NW,315,4.0,14.0,91,0.00,,,0.00,0.000000,,2013-01-30 05:22:00,
2013-01-29 22:32:00,5.0,3.0,-100.00,NW,315,4.0,14.0,91,0.00,,,0.00,0.000000,,2013-01-30 05:32:00,
2013-01-29 22:42:00,5.0,3.0,-100.00,NW,315,4.0,14.0,91,0.00,,,0.00,0.000000,,2013-01-30 05:42:00,
2013-01-29 23:11:00,4.0,2.0,-100.00,WNW,291,9.0,19.0,90,0.00,,,0.00,0.000000,,2013-01-30 06:11:00,
2013-01-29 23:21:00,4.0,2.0,-100.00,WNW,291,9.0,19.0,90,0.00,,,0.00,0.000000,,2013-01-30 06:21:00,
2013-01-29 23:31:00,4.0,2.0,-100.00,WNW,291,9.0,19.0,90,0.00,,,0.00,0.000000,,2013-01-30 06:31:00,
2013-01-29 23:41:00,4.0,2.0,-100.00,WNW,291,9.0,19.0,90,0.00,,,0.00,0.000000,,2013-01-30 06:41:00,